contact:dominique.lefevre@mio.osupytheas.fr, maurice.libes@osupytheas.fr, didier.mallarino@osupytheas.fr
Project:EMSO http://www.emso-fr.org/EMSO-France
Depth: 2436.0 m
Title:EMSO Ligure Ouest : Data MII capteur AQUADOPP
Date,Latitude,Longitude,X_East,Y_North,Z_Up,Amplitude_X,Amplitude_Y,Amplitude_Z,Batterie,SoundSpeed,Heading,Pitch,Roll,Pressure,TIS,Speed,Direction
, degrees North, degrees East, m.s-1, m.s-1,m.s-1, 1, 1, 1, Volt, m.s-1, degree, degree, degree, dbar, degree_C, m.s-1, degree
2021-07-17T00:04:03,42.805,6.029,-0.019,0.01,-0.008,101.0,101.0,100.0,13.4,1505.2,326.4,-0.8,1.8,2470.571,13.29,0.021,297.8
2021-07-17T00:07:03,42.805,6.029,-0.015,-0.012,0.01,101.0,101.0,100.0,13.4,1505.2,329.0,-0.7,1.8,2470.576,13.29,0.019,231.3
2021-07-17T00:10:03,42.805,6.029,-0.001,0.001,-0.025,101.0,101.0,100.0,13.4,1505.2,330.0,-0.8,1.8,2470.564,13.29,0.001,315.0
2021-07-17T00:13:03,42.805,6.029,-0.001,0.006,-0.013,101.0,101.0,100.0,13.4,1505.2,328.6,-0.8,1.8,2470.54,13.29,0.006,350.5
2021-07-17T00:16:03,42.805,6.029,-0.003,0.015,-0.013,102.0,102.0,101.0,13.4,1505.2,329.7,-0.7,1.8,2470.606,13.29,0.015,348.7
2021-07-17T00:19:03,42.805,6.029,0.014,0.006,-0.014,102.0,102.0,100.0,13.3,1505.2,328.0,-0.8,1.8,2470.548,13.29,0.015,66.8
2021-07-17T00:22:03,42.805,6.029,0.002,0.016,0.015,101.0,102.0,101.0,13.3,1505.2,329.7,-0.7,1.8,2470.591,13.29,0.016,7.1
2021-07-17T00:25:03,42.805,6.029,-0.002,0.004,-0.011,100.0,102.0,100.0,13.4,1505.2,329.6,-0.8,1.8,2470.583,13.29,0.004,333.4
2021-07-17T00:28:03,42.805,6.029,-0.029,-0.006,-0.013,101.0,102.0,100.0,13.4,1505.2,324.8,-0.8,1.8,2470.609,13.29,0.029,258.3
2021-07-17T00:31:03,42.805,6.029,-0.025,0.005,0.013,102.0,100.0,101.0,13.4,1505.2,325.4,-0.8,1.8,2470.531,13.29,0.025,281.3
2021-07-17T00:34:03,42.805,6.029,-0.023,-0.009,-0.009,103.0,102.0,101.0,13.4,1505.2,325.2,-0.7,1.8,2470.591,13.29,0.024,248.6
2021-07-17T00:37:03,42.805,6.029,-0.025,0.0,-0.025,101.0,102.0,99.0,13.3,1505.2,328.3,-0.7,1.8,2470.568,13.29,0.025,270.0
2021-07-17T00:40:03,42.805,6.029,0.001,-0.001,-0.015,101.0,101.0,100.0,13.4,1505.2,327.7,-0.8,1.8,2470.572,13.29,0.001,135.0
2021-07-17T00:43:03,42.805,6.029,-0.008,-0.012,-0.012,100.0,101.0,100.0,13.4,1505.2,328.5,-0.8,1.8,2470.567,13.29,0.014,213.7
2021-07-17T00:46:03,42.805,6.029,-0.011,0.008,0.01,103.0,102.0,100.0,13.3,1505.2,327.8,-0.8,1.8,2470.547,13.29,0.013,306.0
2021-07-17T00:49:03,42.805,6.029,-0.013,0.005,0.003,100.0,101.0,100.0,13.4,1505.2,329.8,-0.8,1.8,2470.552,13.29,0.013,291.0
2021-07-17T00:52:03,42.805,6.029,-0.01,0.001,-0.023,102.0,101.0,100.0,13.4,1505.2,329.9,-0.8,1.8,2470.58,13.29,0.01,275.7
2021-07-17T00:55:03,42.805,6.029,0.009,0.023,0.027,99.0,101.0,100.0,13.3,1505.2,329.3,-0.7,1.8,2470.53,13.29,0.024,21.4
2021-07-17T00:58:03,42.805,6.029,-0.013,-0.015,-0.018,100.0,101.0,100.0,13.3,1505.2,328.3,-0.7,1.8,2470.546,13.29,0.019,220.9
2021-07-17T01:04:03,42.805,6.029,-0.007,0.009,-0.011,100.0,102.0,100.0,13.4,1505.2,325.2,-0.8,1.9,2470.571,13.29,0.011,322.1
2021-07-17T01:07:03,42.805,6.029,-0.008,-0.004,-0.003,101.0,101.0,100.0,13.4,1505.2,326.2,-0.7,1.8,2470.579,13.29,0.008,243.4
2021-07-17T01:10:03,42.805,6.029,-0.014,-0.002,0.002,100.0,101.0,100.0,13.4,1505.2,328.8,-0.8,1.9,2470.552,13.29,0.014,261.9
2021-07-17T01:13:03,42.805,6.029,-0.011,-0.007,-0.029,100.0,101.0,100.0,13.3,1505.2,325.7,-0.8,1.8,2470.552,13.29,0.013,237.5
2021-07-17T01:16:03,42.805,6.029,-0.021,0.007,0.015,100.0,102.0,100.0,13.3,1505.2,325.7,-0.7,1.8,2470.571,13.29,0.022,288.4
2021-07-17T01:19:03,42.805,6.029,-0.023,-0.002,-0.005,100.0,102.0,100.0,13.3,1505.2,328.7,-0.8,1.8,2470.564,13.29,0.023,265.0
2021-07-17T01:22:03,42.805,6.029,-0.031,-0.005,-0.027,100.0,101.0,100.0,13.4,1505.2,329.1,-0.8,1.8,2470.567,13.29,0.031,260.8
2021-07-17T01:25:03,42.805,6.029,-0.007,-0.006,-0.029,102.0,101.0,100.0,13.4,1505.2,327.2,-0.7,1.8,2470.507,13.29,0.009,229.4
2021-07-17T01:28:03,42.805,6.029,-0.016,0.003,0.003,102.0,101.0,100.0,13.3,1505.2,327.1,-0.8,1.8,2470.595,13.29,0.016,280.6
2021-07-17T01:31:03,42.805,6.029,-0.011,0.002,0.029,102.0,101.0,101.0,13.4,1505.2,329.2,-0.8,1.8,2470.57,13.29,0.011,280.3
2021-07-17T01:34:03,42.805,6.029,-0.01,-0.01,-0.019,99.0,101.0,100.0,13.3,1505.2,325.6,-0.8,1.8,2470.52,13.29,0.014,225.0
2021-07-17T01:37:03,42.805,6.029,-0.005,-0.011,-0.015,101.0,102.0,100.0,13.4,1505.2,325.4,-0.8,1.8,2470.54,13.29,0.012,204.4
2021-07-17T01:40:03,42.805,6.029,0.008,0.015,0.017,100.0,102.0,100.0,13.3,1505.2,330.3,-0.7,1.8,2470.544,13.29,0.017,28.1
2021-07-17T01:43:03,42.805,6.029,-0.012,0.0,-0.006,100.0,104.0,101.0,13.4,1505.2,326.8,-0.8,1.8,2470.552,13.29,0.012,270.0
2021-07-17T01:46:03,42.805,6.029,-0.017,0.015,-0.023,101.0,101.0,100.0,13.3,1505.2,325.6,-0.7,1.8,2470.526,13.29,0.022,311.4
2021-07-17T01:49:03,42.805,6.029,-0.013,-0.002,-0.014,101.0,102.0,101.0,13.3,1505.2,329.1,-0.8,1.8,2470.563,13.29,0.013,261.3
2021-07-17T01:52:03,42.805,6.029,-0.018,0.006,-0.017,99.0,102.0,100.0,13.4,1505.2,326.7,-0.8,1.8,2470.504,13.29,0.018,288.4
2021-07-17T01:55:03,42.805,6.029,-0.017,-0.01,-0.022,101.0,103.0,99.0,13.4,1505.2,326.6,-0.7,1.8,2470.528,13.29,0.019,239.5
2021-07-17T01:58:03,42.805,6.029,-0.022,0.012,-0.004,100.0,102.0,101.0,13.4,1505.2,329.9,-0.8,1.8,2470.53,13.29,0.025,298.6
2021-07-17T02:04:03,42.805,6.029,-0.02,-0.006,-0.023,101.0,102.0,100.0,13.4,1505.2,329.6,-0.8,1.9,2470.535,13.29,0.02,253.3
2021-07-17T02:07:03,42.805,6.029,-0.012,-0.003,-0.018,100.0,101.0,101.0,13.4,1505.2,327.9,-0.7,1.8,2470.544,13.29,0.012,256.0
2021-07-17T02:10:03,42.805,6.029,-0.007,0.002,0.019,102.0,99.0,101.0,13.4,1505.2,329.7,-0.8,1.8,2470.543,13.29,0.007,285.9
2021-07-17T02:13:03,42.805,6.029,-0.025,0.007,0.004,102.0,100.0,101.0,13.3,1505.2,328.6,-0.7,1.8,2470.525,13.29,0.025,285.6
2021-07-17T02:16:03,42.805,6.029,-0.028,-0.003,0.006,100.0,103.0,100.0,13.3,1505.2,324.5,-0.8,1.8,2470.536,13.29,0.028,263.9
2021-07-17T02:19:03,42.805,6.029,-0.019,0.017,0.006,103.0,102.0,100.0,13.3,1505.2,328.6,-0.8,1.8,2470.551,13.29,0.025,311.8
2021-07-17T02:22:03,42.805,6.029,-0.003,0.009,-0.02,101.0,104.0,99.0,13.3,1505.2,324.9,-0.7,1.8,2470.569,13.29,0.009,341.6
2021-07-17T02:25:03,42.805,6.029,-0.017,-0.002,-0.01,102.0,102.0,99.0,13.4,1505.2,329.2,-0.8,1.8,2470.514,13.29,0.017,263.3
2021-07-17T02:28:03,42.805,6.029,-0.018,0.0,-0.017,101.0,101.0,101.0,13.4,1505.2,326.9,-0.7,1.8,2470.505,13.29,0.018,270.0
2021-07-17T02:31:03,42.805,6.029,-0.009,-0.004,-0.007,101.0,102.0,100.0,13.4,1505.2,329.8,-0.8,1.9,2470.56,13.29,0.009,246.0
2021-07-17T02:34:03,42.805,6.029,-0.024,0.01,-0.008,102.0,99.0,100.0,13.4,1505.2,329.1,-0.8,1.8,2470.549,13.29,0.026,292.6
2021-07-17T02:37:03,42.805,6.029,-0.028,-0.003,-0.038,102.0,103.0,98.0,13.4,1505.2,328.8,-0.7,1.8,2470.507,13.29,0.028,263.9
2021-07-17T02:40:03,42.805,6.029,-0.021,0.0,-0.022,101.0,101.0,99.0,13.4,1505.2,328.7,-0.7,1.8,2470.482,13.29,0.021,270.0
2021-07-17T02:43:03,42.805,6.029,0.0,-0.012,-0.028,101.0,101.0,101.0,13.4,1505.2,327.0,-0.8,1.8,2470.531,13.29,0.012,180.0
2021-07-17T02:46:03,42.805,6.029,-0.018,-0.001,-0.014,101.0,101.0,100.0,13.4,1505.2,327.5,-0.8,1.8,2470.52,13.29,0.018,266.8
2021-07-17T02:49:03,42.805,6.029,-0.013,0.02,0.002,101.0,101.0,100.0,13.4,1505.2,330.3,-0.8,1.8,2470.5,13.29,0.023,327.0
2021-07-17T02:52:03,42.805,6.029,0.003,0.006,0.008,102.0,101.0,99.0,13.4,1505.2,326.6,-0.8,1.8,2470.557,13.29,0.006,26.6
2021-07-17T02:55:03,42.805,6.029,-0.019,0.01,-0.036,102.0,100.0,101.0,13.3,1505.2,327.0,-0.7,1.8,2470.512,13.29,0.021,297.8
2021-07-17T02:58:03,42.805,6.029,-0.023,0.01,-0.001,101.0,102.0,99.0,13.3,1505.2,329.8,-0.7,1.8,2470.5,13.29,0.025,293.5
2021-07-17T03:04:03,42.805,6.029,-0.038,-0.005,-0.047,101.0,101.0,100.0,13.4,1505.2,327.6,-0.8,1.8,2470.546,13.28,0.038,262.5
2021-07-17T03:07:03,42.805,6.029,-0.015,-0.004,0.0,101.0,101.0,100.0,13.4,1505.2,330.1,-0.7,1.8,2470.493,13.28,0.015,255.1
2021-07-17T03:10:03,42.805,6.029,-0.025,0.003,-0.018,102.0,102.0,99.0,13.4,1505.2,328.9,-0.7,1.8,2470.512,13.28,0.025,276.8
2021-07-17T03:13:03,42.805,6.029,-0.017,-0.001,0.007,101.0,102.0,100.0,13.3,1505.2,325.2,-0.7,1.8,2470.516,13.28,0.017,266.6
2021-07-17T03:16:03,42.805,6.029,-0.029,0.008,-0.027,104.0,101.0,99.0,13.4,1505.2,329.8,-0.7,1.8,2470.478,13.29,0.03,285.4
2021-07-17T03:19:03,42.805,6.029,-0.018,-0.003,-0.013,100.0,102.0,101.0,13.4,1505.2,325.7,-0.8,1.8,2470.476,13.29,0.018,260.5
2021-07-17T03:22:03,42.805,6.029,-0.051,-0.015,-0.024,101.0,100.0,100.0,13.4,1505.2,328.6,-0.8,1.8,2470.46,13.29,0.053,253.6
2021-07-17T03:25:03,42.805,6.029,-0.007,-0.011,0.014,101.0,101.0,100.0,13.3,1505.2,326.4,-0.8,1.8,2470.499,13.29,0.013,212.5
2021-07-17T03:28:03,42.805,6.029,-0.026,0.0,-0.015,102.0,102.0,100.0,13.4,1505.2,328.2,-0.8,1.8,2470.504,13.29,0.026,270.0
2021-07-17T03:31:03,42.805,6.029,-0.005,0.001,0.024,100.0,102.0,101.0,13.4,1505.2,324.8,-0.8,1.8,2470.489,13.29,0.005,281.3
2021-07-17T03:34:03,42.805,6.029,-0.031,-0.009,-0.024,101.0,102.0,100.0,13.4,1505.2,328.5,-0.8,1.8,2470.514,13.29,0.032,253.8
2021-07-17T03:37:03,42.805,6.029,-0.01,0.0,-0.012,100.0,102.0,101.0,13.4,1505.2,328.0,-0.7,1.8,2470.464,13.29,0.01,270.0
2021-07-17T03:40:03,42.805,6.029,-0.024,-0.008,0.001,102.0,102.0,101.0,13.4,1505.2,327.3,-0.7,1.9,2470.458,13.29,0.025,251.6
2021-07-17T03:43:03,42.805,6.029,-0.032,-0.001,-0.017,100.0,102.0,102.0,13.4,1505.2,326.6,-0.7,1.8,2470.455,13.29,0.032,268.2
2021-07-17T03:46:03,42.805,6.029,-0.029,0.0,-0.017,101.0,101.0,100.0,13.3,1505.2,325.4,-0.8,1.8,2470.468,13.29,0.028,270.0
2021-07-17T03:49:03,42.805,6.029,-0.007,0.004,0.02,103.0,103.0,99.0,13.3,1505.2,328.4,-0.8,1.8,2470.45,13.29,0.008,299.7
2021-07-17T03:52:03,42.805,6.029,-0.02,0.003,0.009,100.0,103.0,100.0,13.4,1505.2,329.7,-0.8,1.8,2470.494,13.29,0.02,278.5
2021-07-17T03:55:03,42.805,6.029,-0.031,-0.016,-0.031,102.0,99.0,100.0,13.4,1505.2,328.1,-0.8,1.8,2470.476,13.29,0.034,242.7
2021-07-17T03:58:03,42.805,6.029,-0.014,0.003,-0.011,100.0,102.0,100.0,13.4,1505.2,329.3,-0.8,1.8,2470.47,13.29,0.014,282.1
2021-07-17T04:04:03,42.805,6.029,-0.029,-0.019,-0.02,103.0,102.0,101.0,13.4,1505.2,326.0,-0.7,1.8,2470.502,13.28,0.034,236.8
2021-07-17T04:07:03,42.805,6.029,-0.03,-0.022,-0.018,101.0,102.0,101.0,13.4,1505.2,329.5,-0.8,1.9,2470.454,13.28,0.037,233.7
2021-07-17T04:10:03,42.805,6.029,-0.001,-0.015,-0.031,102.0,102.0,100.0,13.4,1505.2,327.9,-0.7,1.9,2470.431,13.28,0.015,183.8
2021-07-17T04:13:03,42.805,6.029,-0.005,-0.018,0.0,100.0,103.0,101.0,13.4,1505.2,329.4,-0.7,1.8,2470.477,13.28,0.018,195.5
2021-07-17T04:16:03,42.805,6.029,-0.012,-0.006,0.016,103.0,102.0,101.0,13.4,1505.2,327.8,-0.7,1.8,2470.475,13.29,0.013,243.4
2021-07-17T04:19:03,42.805,6.029,-0.015,0.021,0.0,103.0,102.0,100.0,13.4,1505.2,330.9,-0.8,1.8,2470.454,13.29,0.025,324.5
2021-07-17T04:22:03,42.805,6.029,-0.029,-0.014,-0.033,102.0,102.0,100.0,13.4,1505.2,324.9,-0.7,1.8,2470.416,13.29,0.032,244.2
2021-07-17T04:25:03,42.805,6.029,-0.014,0.017,0.026,101.0,102.0,101.0,13.3,1505.2,327.2,-0.7,1.8,2470.474,13.29,0.022,320.5
2021-07-17T04:28:03,42.805,6.029,0.003,0.005,0.001,102.0,102.0,100.0,13.4,1505.2,328.2,-0.7,1.8,2470.462,13.29,0.005,31.0
2021-07-17T04:31:03,42.805,6.029,-0.018,0.012,-0.018,103.0,100.0,101.0,13.4,1505.2,326.7,-0.7,1.8,2470.447,13.29,0.021,303.7
2021-07-17T04:34:03,42.805,6.029,-0.025,0.0,-0.008,101.0,102.0,101.0,13.3,1505.2,325.2,-0.8,1.8,2470.45,13.29,0.025,270.0
2021-07-17T04:37:03,42.805,6.029,-0.029,0.012,-0.009,102.0,102.0,101.0,13.3,1505.2,330.2,-0.7,1.8,2470.433,13.29,0.031,292.5
2021-07-17T04:40:03,42.805,6.029,-0.022,0.011,-0.033,102.0,103.0,101.0,13.4,1505.2,327.2,-0.7,1.8,2470.459,13.29,0.024,296.6
2021-07-17T04:43:03,42.805,6.029,0.002,0.007,-0.012,102.0,102.0,100.0,13.3,1505.2,325.7,-0.7,1.9,2470.403,13.29,0.007,15.9
2021-07-17T04:46:03,42.805,6.029,0.005,0.01,0.005,103.0,102.0,101.0,13.3,1505.2,330.0,-0.7,1.8,2470.479,13.29,0.011,26.6
2021-07-17T04:49:03,42.805,6.029,-0.023,-0.002,-0.009,101.0,104.0,99.0,13.4,1505.2,328.5,-0.8,1.8,2470.51,13.29,0.023,265.0
2021-07-17T04:52:03,42.805,6.029,-0.021,0.013,0.0,102.0,103.0,101.0,13.4,1505.2,329.0,-0.7,1.8,2470.421,13.29,0.024,301.8
2021-07-17T04:55:03,42.805,6.029,-0.024,0.004,0.0,103.0,103.0,101.0,13.4,1505.2,328.3,-0.8,1.8,2470.457,13.29,0.024,279.5
2021-07-17T04:58:03,42.805,6.029,-0.025,0.017,0.005,104.0,103.0,100.0,13.3,1505.2,329.1,-0.7,1.8,2470.456,13.29,0.03,304.2
2021-07-17T05:04:03,42.805,6.029,-0.03,0.013,0.008,102.0,104.0,100.0,13.4,1505.2,328.8,-0.7,1.9,2470.475,13.28,0.032,293.4
2021-07-17T05:07:03,42.805,6.029,-0.03,0.001,-0.022,104.0,101.0,102.0,13.3,1505.2,328.5,-0.8,1.8,2470.488,13.28,0.03,271.9
2021-07-17T05:10:03,42.805,6.029,-0.025,0.011,0.002,102.0,102.0,101.0,13.4,1505.2,327.1,-0.7,1.8,2470.483,13.28,0.027,293.7
2021-07-17T05:13:03,42.805,6.029,-0.029,0.015,0.041,102.0,104.0,99.0,13.4,1505.2,327.0,-0.8,1.8,2470.495,13.28,0.032,297.4
2021-07-17T05:16:03,42.805,6.029,-0.037,-0.008,-0.051,101.0,104.0,101.0,13.4,1505.2,327.3,-0.8,1.8,2470.469,13.28,0.037,257.8
2021-07-17T05:19:03,42.805,6.029,-0.015,-0.016,-0.016,105.0,101.0,100.0,13.4,1505.2,329.7,-0.8,1.9,2470.456,13.29,0.021,223.1
2021-07-17T05:22:03,42.805,6.029,0.005,0.006,0.009,101.0,102.0,101.0,13.4,1505.2,325.8,-0.8,1.8,2470.434,13.29,0.007,39.8
2021-07-17T05:25:03,42.805,6.029,-0.006,0.006,-0.007,102.0,101.0,100.0,13.4,1505.2,328.5,-0.7,1.9,2470.443,13.29,0.008,315.0
2021-07-17T05:28:03,42.805,6.029,-0.014,0.007,0.013,104.0,102.0,101.0,13.4,1505.2,327.1,-0.8,1.8,2470.423,13.29,0.015,296.6
2021-07-17T05:31:03,42.805,6.029,-0.012,0.001,0.01,102.0,104.0,100.0,13.4,1505.2,328.1,-0.7,1.8,2470.424,13.29,0.012,274.8
2021-07-17T05:34:03,42.805,6.029,-0.011,0.004,0.006,101.0,102.0,100.0,13.4,1505.2,325.8,-0.8,1.8,2470.462,13.29,0.011,290.0
2021-07-17T05:37:03,42.805,6.029,-0.014,0.006,-0.017,103.0,102.0,100.0,13.4,1505.2,329.9,-0.7,1.8,2470.458,13.29,0.015,293.2
2021-07-17T05:40:03,42.805,6.029,-0.035,0.0,-0.023,103.0,102.0,100.0,13.4,1505.2,327.9,-0.8,1.8,2470.421,13.29,0.035,270.0
2021-07-17T05:43:03,42.805,6.029,-0.013,0.01,0.001,102.0,102.0,101.0,13.4,1505.2,327.6,-0.7,1.8,2470.38,13.29,0.016,307.6
2021-07-17T05:46:03,42.805,6.029,-0.003,-0.018,0.0,103.0,102.0,102.0,13.3,1505.2,328.5,-0.8,1.8,2470.458,13.29,0.018,189.5
2021-07-17T05:49:03,42.805,6.029,-0.014,-0.002,0.0,103.0,103.0,100.0,13.4,1505.2,330.5,-0.7,1.8,2470.444,13.29,0.014,261.9
2021-07-17T05:52:03,42.805,6.029,-0.015,0.018,-0.001,103.0,102.0,101.0,13.3,1505.2,328.3,-0.8,1.8,2470.43,13.29,0.023,320.2
2021-07-17T05:55:03,42.805,6.029,-0.019,-0.001,0.021,101.0,103.0,102.0,13.4,1505.2,328.0,-0.7,1.8,2470.43,13.29,0.019,267.0
2021-07-17T05:58:03,42.805,6.029,-0.036,0.025,-0.02,102.0,104.0,101.0,13.3,1505.2,327.5,-0.8,1.8,2470.416,13.29,0.043,304.8
2021-07-17T06:04:03,42.805,6.029,-0.027,0.001,-0.002,102.0,101.0,101.0,13.4,1505.2,328.6,-0.7,1.8,2470.453,13.28,0.027,272.1
2021-07-17T06:07:03,42.805,6.029,0.004,0.024,-0.013,101.0,104.0,100.0,13.3,1505.2,327.7,-0.8,1.8,2470.457,13.28,0.024,9.5
2021-07-17T06:10:03,42.805,6.029,-0.034,0.004,0.014,101.0,102.0,101.0,13.3,1505.2,327.0,-0.7,1.8,2470.432,13.29,0.034,276.7
2021-07-17T06:13:03,42.805,6.029,-0.03,-0.003,-0.027,101.0,102.0,100.0,13.4,1505.2,328.6,-0.7,1.8,2470.387,13.29,0.03,264.3
2021-07-17T06:16:03,42.805,6.029,-0.014,0.0,-0.003,102.0,103.0,101.0,13.4,1505.2,325.5,-0.7,1.8,2470.384,13.29,0.014,270.0
2021-07-17T06:19:03,42.805,6.029,-0.023,-0.008,0.004,102.0,102.0,100.0,13.3,1505.2,329.8,-0.7,1.8,2470.448,13.29,0.024,250.8
2021-07-17T06:22:03,42.805,6.029,-0.022,0.013,-0.003,101.0,102.0,101.0,13.3,1505.2,327.6,-0.7,1.8,2470.42,13.29,0.025,300.6
2021-07-17T06:25:03,42.805,6.029,-0.029,0.014,-0.031,102.0,103.0,99.0,13.4,1505.2,326.8,-0.8,1.8,2470.383,13.29,0.032,295.8
2021-07-17T06:28:03,42.805,6.029,-0.005,0.007,0.007,103.0,102.0,101.0,13.4,1505.2,326.9,-0.7,1.8,2470.42,13.29,0.008,324.5
2021-07-17T06:31:03,42.805,6.029,-0.023,-0.006,-0.023,102.0,100.0,102.0,13.3,1505.2,325.6,-0.8,1.8,2470.38,13.29,0.023,255.4
2021-07-17T06:34:03,42.805,6.029,-0.016,0.011,0.002,102.0,102.0,99.0,13.4,1505.2,328.4,-0.7,1.8,2470.394,13.29,0.019,304.5
2021-07-17T06:37:03,42.805,6.029,-0.016,0.006,0.001,102.0,101.0,99.0,13.4,1505.2,330.2,-0.8,1.9,2470.41,13.29,0.017,290.6
2021-07-17T06:40:03,42.805,6.029,-0.036,-0.003,-0.022,102.0,102.0,101.0,13.3,1505.2,327.9,-0.7,1.8,2470.397,13.29,0.036,265.2
2021-07-17T06:43:03,42.805,6.029,-0.021,0.022,0.005,101.0,102.0,99.0,13.4,1505.2,329.6,-0.7,1.8,2470.404,13.29,0.03,316.3
2021-07-17T06:46:03,42.805,6.029,-0.027,0.025,0.001,100.0,101.0,102.0,13.4,1505.2,329.0,-0.7,1.8,2470.394,13.29,0.036,312.8
2021-07-17T06:49:03,42.805,6.029,-0.017,-0.024,-0.06,102.0,102.0,99.0,13.4,1505.2,329.6,-0.8,1.8,2470.453,13.29,0.029,215.3
2021-07-17T06:52:03,42.805,6.029,-0.025,0.004,-0.007,101.0,102.0,100.0,13.3,1505.2,330.0,-0.7,1.8,2470.381,13.29,0.025,279.1
2021-07-17T06:55:03,42.805,6.029,-0.018,-0.003,0.023,102.0,101.0,101.0,13.3,1505.2,328.4,-0.7,1.8,2470.382,13.29,0.018,260.5
2021-07-17T06:58:03,42.805,6.029,-0.022,0.002,-0.017,100.0,102.0,101.0,13.4,1505.2,328.1,-0.8,1.8,2470.422,13.29,0.022,275.2
2021-07-17T07:04:03,42.805,6.029,-0.039,-0.009,-0.045,102.0,102.0,100.0,13.4,1505.2,329.2,-0.8,1.9,2470.423,13.28,0.04,257.0
2021-07-17T07:07:03,42.805,6.029,-0.037,-0.003,-0.009,101.0,102.0,100.0,13.4,1505.2,327.4,-0.8,1.8,2470.416,13.28,0.037,265.4
2021-07-17T07:10:03,42.805,6.029,-0.021,0.009,-0.01,103.0,103.0,101.0,13.3,1505.2,325.2,-0.8,1.8,2470.38,13.28,0.022,293.2
2021-07-17T07:13:03,42.805,6.029,-0.018,-0.001,-0.021,103.0,100.0,100.0,13.4,1505.2,328.9,-0.8,1.8,2470.406,13.28,0.018,266.8
2021-07-17T07:16:03,42.805,6.029,-0.028,-0.005,-0.011,101.0,103.0,102.0,13.3,1505.2,329.9,-0.8,1.8,2470.409,13.29,0.028,259.9
2021-07-17T07:19:03,42.805,6.029,-0.027,-0.012,-0.023,102.0,102.0,99.0,13.4,1505.2,326.6,-0.8,1.8,2470.41,13.29,0.029,246.0
2021-07-17T07:22:03,42.805,6.029,-0.024,-0.006,-0.024,102.0,102.0,101.0,13.4,1505.2,325.9,-0.8,1.8,2470.424,13.29,0.024,256.0
2021-07-17T07:25:03,42.805,6.029,-0.02,-0.006,-0.026,101.0,102.0,102.0,13.4,1505.2,326.7,-0.8,1.8,2470.413,13.29,0.02,253.3
2021-07-17T07:28:03,42.805,6.029,-0.018,-0.001,0.008,103.0,101.0,100.0,13.3,1505.2,327.9,-0.7,1.8,2470.375,13.29,0.018,266.8
2021-07-17T07:31:03,42.805,6.029,-0.01,0.001,0.017,102.0,101.0,101.0,13.4,1505.2,329.9,-0.8,1.8,2470.381,13.29,0.01,275.7
2021-07-17T07:34:03,42.805,6.029,-0.009,0.007,0.003,103.0,102.0,101.0,13.4,1505.2,326.3,-0.7,1.8,2470.336,13.29,0.011,307.9
2021-07-17T07:37:03,42.805,6.029,-0.002,-0.006,-0.007,103.0,102.0,101.0,13.3,1505.2,327.9,-0.8,1.8,2470.39,13.29,0.006,198.4
2021-07-17T07:40:03,42.805,6.029,-0.017,0.006,-0.014,104.0,102.0,101.0,13.4,1505.2,326.4,-0.7,1.8,2470.374,13.29,0.018,289.4
2021-07-17T07:43:03,42.805,6.029,-0.016,0.012,-0.029,103.0,103.0,101.0,13.3,1505.2,327.3,-0.8,1.8,2470.37,13.29,0.02,306.9
2021-07-17T07:46:03,42.805,6.029,-0.014,-0.001,-0.021,102.0,102.0,101.0,13.3,1505.2,325.9,-0.7,1.8,2470.37,13.29,0.014,265.9
2021-07-17T07:49:03,42.805,6.029,-0.01,0.008,-0.008,103.0,103.0,101.0,13.4,1505.2,326.7,-0.8,1.8,2470.359,13.29,0.012,308.7
2021-07-17T07:52:03,42.805,6.029,-0.01,-0.003,-0.033,102.0,102.0,101.0,13.3,1505.2,325.9,-0.8,1.8,2470.365,13.29,0.01,253.3
2021-07-17T07:55:03,42.805,6.029,-0.024,-0.002,-0.003,103.0,103.0,101.0,13.4,1505.2,326.5,-0.8,1.8,2470.384,13.29,0.024,265.2
2021-07-17T07:58:03,42.805,6.029,-0.019,0.017,-0.01,102.0,103.0,103.0,13.4,1505.2,329.6,-0.8,1.9,2470.369,13.29,0.025,311.8
2021-07-17T08:04:03,42.805,6.029,-0.005,0.014,0.016,103.0,103.0,101.0,13.4,1505.2,330.2,-0.8,1.8,2470.395,13.28,0.014,340.4
2021-07-17T08:07:03,42.805,6.029,-0.023,0.017,0.0,102.0,103.0,101.0,13.3,1505.2,327.1,-0.8,1.8,2470.401,13.29,0.028,306.5
2021-07-17T08:10:03,42.805,6.029,-0.01,-0.008,0.008,102.0,103.0,101.0,13.4,1505.2,329.0,-0.7,1.8,2470.357,13.29,0.012,231.3
2021-07-17T08:13:03,42.805,6.029,-0.034,0.017,0.0,102.0,103.0,101.0,13.4,1505.2,327.4,-0.7,1.8,2470.395,13.29,0.038,296.6
2021-07-17T08:16:03,42.805,6.029,-0.019,-0.006,-0.025,103.0,103.0,101.0,13.4,1505.2,327.6,-0.7,1.8,2470.39,13.29,0.019,252.5
2021-07-17T08:19:03,42.805,6.029,-0.011,0.0,-0.014,104.0,102.0,100.0,13.4,1505.2,327.6,-0.8,1.8,2470.376,13.29,0.011,270.0
2021-07-17T08:22:03,42.805,6.029,-0.028,0.02,-0.003,103.0,103.0,100.0,13.4,1505.2,326.5,-0.8,1.8,2470.423,13.29,0.034,305.5
2021-07-17T08:25:03,42.805,6.029,0.002,-0.011,-0.019,102.0,104.0,102.0,13.4,1505.2,327.5,-0.8,1.8,2470.37,13.29,0.011,169.7
2021-07-17T08:28:03,42.805,6.029,-0.019,0.006,0.01,103.0,101.0,101.0,13.4,1505.2,327.9,-0.8,1.8,2470.381,13.29,0.019,287.5
2021-07-17T08:31:03,42.805,6.029,-0.039,0.0,-0.01,103.0,102.0,102.0,13.4,1505.2,328.8,-0.8,1.8,2470.365,13.29,0.039,270.0
2021-07-17T08:34:03,42.805,6.029,0.009,-0.013,0.002,102.0,103.0,101.0,13.4,1505.2,324.9,-0.8,1.8,2470.329,13.29,0.015,145.3
2021-07-17T08:37:03,42.805,6.029,-0.008,0.003,-0.016,104.0,102.0,101.0,13.4,1505.2,326.2,-0.8,1.8,2470.389,13.29,0.008,290.6
2021-07-17T08:40:03,42.805,6.029,-0.005,-0.003,0.008,102.0,104.0,102.0,13.4,1505.2,330.1,-0.8,1.8,2470.374,13.29,0.005,239.0
2021-07-17T08:43:03,42.805,6.029,0.0,0.017,0.006,103.0,103.0,100.0,13.3,1505.2,328.1,-0.8,1.8,2470.341,13.29,0.017,0.0
2021-07-17T08:46:03,42.805,6.029,-0.013,0.006,-0.007,105.0,102.0,101.0,13.4,1505.2,324.5,-0.8,1.8,2470.409,13.29,0.014,294.8
2021-07-17T08:49:03,42.805,6.029,-0.009,0.005,-0.021,104.0,101.0,101.0,13.4,1505.2,326.4,-0.7,1.8,2470.357,13.29,0.01,299.1
2021-07-17T08:52:03,42.805,6.029,0.006,-0.002,-0.009,102.0,103.0,102.0,13.3,1505.2,330.4,-0.7,1.8,2470.359,13.29,0.006,108.4
2021-07-17T08:55:03,42.805,6.029,-0.027,-0.001,0.014,105.0,102.0,101.0,13.4,1505.2,328.6,-0.7,1.8,2470.38,13.29,0.027,267.9
2021-07-17T08:58:03,42.805,6.029,-0.013,0.024,0.007,103.0,102.0,101.0,13.4,1505.2,328.1,-0.7,1.8,2470.391,13.29,0.027,331.6
2021-07-17T09:04:03,42.805,6.029,-0.009,0.012,-0.006,102.0,102.0,102.0,13.4,1505.2,329.0,-0.8,1.9,2470.41,13.29,0.015,323.1
2021-07-17T09:07:03,42.805,6.029,-0.022,0.003,-0.01,103.0,102.0,103.0,13.4,1505.2,325.9,-0.8,1.8,2470.422,13.29,0.022,277.8
2021-07-17T09:10:03,42.805,6.029,-0.02,-0.002,-0.016,103.0,102.0,100.0,13.4,1505.2,326.4,-0.8,1.8,2470.436,13.29,0.02,264.3
2021-07-17T09:13:03,42.805,6.029,-0.027,0.016,0.01,101.0,103.0,100.0,13.3,1505.2,327.9,-0.7,1.8,2470.433,13.29,0.031,300.7
2021-07-17T09:16:03,42.805,6.029,-0.008,-0.001,-0.011,102.0,101.0,101.0,13.4,1505.2,327.8,-0.7,1.8,2470.404,13.29,0.008,262.9
2021-07-17T09:19:03,42.805,6.029,-0.005,0.006,-0.036,103.0,102.0,100.0,13.4,1505.2,330.0,-0.8,1.8,2470.39,13.29,0.007,320.2
2021-07-17T09:22:03,42.805,6.029,-0.001,0.013,0.033,103.0,102.0,100.0,13.4,1505.2,327.8,-0.7,1.8,2470.402,13.29,0.013,355.6
2021-07-17T09:25:03,42.805,6.029,-0.024,0.015,-0.003,103.0,101.0,101.0,13.4,1505.2,329.6,-0.7,1.8,2470.383,13.29,0.028,302.0
2021-07-17T09:28:03,42.805,6.029,-0.01,-0.007,-0.001,102.0,102.0,101.0,13.4,1505.2,324.7,-0.8,1.8,2470.366,13.29,0.012,235.0
2021-07-17T09:31:03,42.805,6.029,0.0,-0.002,-0.036,101.0,104.0,100.0,13.4,1505.2,329.3,-0.8,1.8,2470.424,13.29,0.002,180.0
2021-07-17T09:34:03,42.805,6.029,-0.012,0.021,0.0,104.0,103.0,101.0,13.3,1505.2,328.3,-0.8,1.8,2470.442,13.29,0.024,330.3
2021-07-17T09:37:03,42.805,6.029,-0.01,-0.003,0.006,103.0,101.0,100.0,13.3,1505.2,330.0,-0.8,1.8,2470.421,13.29,0.01,253.3
2021-07-17T09:40:03,42.805,6.029,-0.013,0.002,-0.003,103.0,101.0,102.0,13.3,1505.2,328.7,-0.8,1.8,2470.404,13.29,0.013,278.7
2021-07-17T09:43:03,42.805,6.029,-0.018,-0.001,-0.006,104.0,103.0,101.0,13.4,1505.2,329.8,-0.8,1.8,2470.423,13.29,0.018,266.8
2021-07-17T09:46:03,42.805,6.029,-0.015,0.012,0.006,104.0,103.0,99.0,13.3,1505.2,324.7,-0.8,1.8,2470.417,13.29,0.019,308.7
2021-07-17T09:49:03,42.805,6.029,-0.036,-0.003,-0.039,101.0,102.0,101.0,13.3,1505.2,327.4,-0.7,1.8,2470.425,13.29,0.036,265.2
2021-07-17T09:52:03,42.805,6.029,-0.023,0.0,-0.032,103.0,103.0,101.0,13.4,1505.2,326.1,-0.8,1.8,2470.408,13.29,0.023,270.0
2021-07-17T09:55:03,42.805,6.029,-0.008,-0.017,-0.006,102.0,103.0,101.0,13.4,1505.2,325.6,-0.7,1.9,2470.458,13.29,0.018,205.2